Abilene, TX

4:24 AM CDT on April 30, 2017 (GMT -0500)
Abilene Regional

Weather History for KABI - September, 2011

Change the Weather History Date:

Saturday, September 17, 2011

  Actual Average Record
Temperature  
Mean Temperature 81 °F 75 °F  
Max Temperature 93 °F 86 °F 100 °F (1997)
Min Temperature 69 °F 64 °F 43 °F (1903)
Degree Days  
Heating Degree Days 0 0  
Month to date heating degree days 0 0  
Since 1 July heating degree days 0 0  
Cooling Degree Days 16 10  
Month to date cooling degree days 218 217  
Year to date cooling degree days 3183 2162  
Growing Degree Days 31 (Base 50)    
Moisture  
Dew Point 66 °F    
Average Humidity 68    
Maximum Humidity 97    
Minimum Humidity 39    
Precipitation  
Precipitation 0.00 in 0.07 in 1.77 in (1936)
Month to date precipitation 0.24 1.32  
Year to date precipitation 10.63 18.28  
Sea Level Pressure  
Sea Level Pressure 29.94 in    
Wind  
Wind Speed 13 mph (SSE)    
Max Wind Speed 28 mph    
Max Gust Speed 38 mph    
Visibility 10 miles    
Events Thunderstorm    
T = Trace of Precipitation, MM = Missing Value Source: NWS Daily Summary

Daily Weather History Graph

Daily Weather History Graph

Search for Another Location

Airport or City:

Trip Planner

Search our weather history database for the weather conditions in past years. The results will help you decide how hot, cold, wet, or windy it might be!

Date:

Astronomy

Sep. 17, 2011 Rise Set
Actual Time 7:23 AM CDT 7:42 PM CDT
Civil Twilight 6:59 AM CDT 8:06 PM CDT
Nautical Twilight 6:30 AM CDT 8:35 PM CDT
Astronomical Twilight 6:01 AM CDT 9:04 PM CDT
Moon 10:35 PM CDT (9/17) 12:06 PM CDT (9/17)
Length of Visible Light 13h 07m
Length of Day
12h 18m
Waning Gibbous, 76% of the Moon is Illuminated
Sep 17
Waning Gibbous
Sep 20
Last Quarter
Sep 27
New
Oct 3
First Quarter
Oct 11
Full

Hourly Weather History & Observations

Time (CDT) Temp. Heat Index Dew Point Humidity Pressure Visibility Wind Dir Wind Speed Gust Speed Precip Events Conditions
12:52 AM 71.1 °F - 69.1 °F 93% 29.97 in 10.0 mi SSE 8.1 mph - N/A   Clear
1:52 AM 71.1 °F - 68.0 °F 90% 29.96 in 10.0 mi SSE 9.2 mph - N/A   Clear
2:52 AM 70.0 °F - 68.0 °F 93% 29.95 in 10.0 mi SSE 10.4 mph - N/A   Clear
3:52 AM 71.1 °F - 66.9 °F 87% 29.95 in 10.0 mi South 8.1 mph - N/A   Clear
4:52 AM 70.0 °F - 66.0 °F 87% 29.96 in 10.0 mi South 6.9 mph - N/A   Clear
5:52 AM 69.1 °F - 66.0 °F 90% 29.96 in 10.0 mi South 6.9 mph - N/A   Clear
6:52 AM 69.1 °F - 66.0 °F 90% 29.96 in 10.0 mi South 8.1 mph - N/A   Clear
7:52 AM 70.0 °F - 66.0 °F 87% 29.99 in 10.0 mi South 9.2 mph - N/A   Clear
8:26 AM 71.6 °F - 66.2 °F 83% 30.06 in 10.0 mi South 8.1 mph - N/A   Mostly Cloudy
8:52 AM 72.0 °F - 68.0 °F 87% 29.99 in 10.0 mi South 10.4 mph - N/A   Overcast
9:52 AM 75.0 °F - 69.1 °F 82% 29.99 in 10.0 mi South 11.5 mph 20.7 mph N/A   Overcast
10:52 AM 79.0 °F - 70.0 °F 74% 29.99 in 10.0 mi SSW 17.3 mph 21.9 mph N/A   Mostly Cloudy
11:52 AM 82.0 °F 85.9 °F 70.0 °F 67% 29.99 in 10.0 mi South 19.6 mph 26.5 mph N/A   Mostly Cloudy
12:03 PM 82.4 °F 86.3 °F 69.8 °F 66% 30.05 in 10.0 mi SSW 18.4 mph 27.6 mph N/A   Scattered Clouds
12:52 PM 84.9 °F 88.2 °F 68.0 °F 57% 29.96 in 10.0 mi South 15.0 mph 27.6 mph N/A   Mostly Cloudy
1:52 PM 88.0 °F 90.7 °F 66.9 °F 49% 29.93 in 10.0 mi SW 18.4 mph 25.3 mph N/A   Scattered Clouds
2:52 PM 90.0 °F 92.4 °F 66.0 °F 45% 29.89 in 10.0 mi SSW 18.4 mph 26.5 mph N/A   Scattered Clouds
3:52 PM 91.9 °F 94.1 °F 64.9 °F 41% 29.85 in 10.0 mi SSW 13.8 mph 20.7 mph N/A   Partly Cloudy
4:52 PM 93.0 °F 94.6 °F 64.0 °F 38% 29.82 in 10.0 mi SW 10.4 mph 18.4 mph N/A   Scattered Clouds
5:35 PM 84.2 °F 85.0 °F 62.6 °F 48% 29.91 in 10.0 mi NNE 10.4 mph 20.7 mph N/A Thunderstorm Thunderstorm
5:52 PM 87.1 °F 88.3 °F 64.0 °F 46% 29.83 in 10.0 mi ESE 6.9 mph - N/A   Mostly Cloudy
6:52 PM 88.0 °F 89.6 °F 64.9 °F 46% 29.83 in 10.0 mi SE 20.7 mph 24.2 mph N/A   Clear
7:52 PM 82.0 °F 84.1 °F 66.0 °F 58% 29.84 in 10.0 mi SE 17.3 mph - N/A   Clear
8:52 PM 78.1 °F - 64.9 °F 64% 29.87 in 10.0 mi SE 26.5 mph 33.4 mph N/A   Clear
9:35 PM 75.2 °F - 62.6 °F 65% 29.97 in 10.0 mi SSE 16.1 mph 27.6 mph N/A Thunderstorm Thunderstorm
9:52 PM 75.9 °F - 63.0 °F 64% 29.93 in 10.0 mi ENE 10.4 mph - N/A Thunderstorm Thunderstorm
10:52 PM 73.9 °F - 66.0 °F 76% 29.94 in 10.0 mi SE 10.4 mph - N/A Thunderstorm Thunderstorm
11:52 PM 73.9 °F - 66.9 °F 79% 29.94 in 10.0 mi SE 11.5 mph - N/A Thunderstorm Thunderstorm